Simultaneous Nadir Overpasses (SNOs) Predictions

Prediction of SNOs between METOP-B and TERRA Satellite Orbit:

Table of predicted SNOs for the next 14.0 days since TLE Epoch: 2/9/2015
Index Date (METOP-B) Time (METOP-B) Lat,Lon (METOP-B) SZA (METOP-B ) Date (TERRA) Time (TERRA) Lat,Lon (TERRA) SZA (TERRA ) Distance(km) Time Diff (sec)
1 02/11/2015 13:41:19 81.28, 21.42 97.55 02/11/2015 13:41:21 81.28, 21.37 97.55 0.85 2
2 02/11/2015 14:31:59 -81.28,-171.12 82.45 02/11/2015 14:30:48 -81.28,-171.02 82.47 1.73 71
3 02/14/2015 08:25:01 -81.27, -80.06 83.44 02/14/2015 08:26:11 -81.26, -80.19 83.43 2.50 70
4 02/14/2015 09:15:41 81.28, 87.74 96.61 02/14/2015 09:15:36 81.29, 87.86 96.62 2.15 5
5 02/17/2015 03:59:22 -81.28, -13.38 84.37 02/17/2015 04:00:25 -81.28, -13.48 84.35 1.72 63
6 02/1
